OBJECT W, 62397

Orbit data source: Space-Track

You're viewing an Uncataloged Satellite

Recently launched and/or uncataloged satellites may have evolving metadata. Metadata may include but not limited to: Owner, Maufacturer, Bus, Motor, and Mission.

OBJECT W, 62397 is a satellite in LEO that was launched on Sat, 21 Dec 2024 UTC via an FALCON 9 launch vehicle from the Air Force Western Test Range (AFWTR). Unknown objects in Earth's orbit typically refer to objects detected orbiting the Earth but have not yet been identified or cataloged. These objects could be anything from previously untracked satellites, spent rocket stages, debris from satellite collisions, or even natural meteoroids temporarily captured by Earth's gravity.

Loading next visibility...
Identifier
62397, 2024-247W
Orbit
LEO
Country
Flag of TBDTBD
Related business
None
Manufacturer
Unknown
Mission
Operational Commercial Communications
Bus & Motor
Unknown
Mass
Unknown
Launch date (UTC)
2024-12-21 (10 months ago)
Launch vehicle
FALCON 9
Launch site
Air Force Western Test Range (AFWTR)
Object type
Unknown
Shape & HBR
Box, 0.0 m
Radar Cross Section
0.004 m², Small (<0.1 m²)

Expand to show TLE details & history
Last TLE update: 2 days ago

TLE from 2 days ago
0 OBJECT W
1 62397U 24247W   25296.53942701  .00063575  00000-0  14139-2 0  9997
2 62397  44.9947 122.9709 0010921 226.2929 133.7056 15.42805693 47033
Epoch: 2025-10-23T12:56Z
TLE epoch observation values (Epoch: 2025-10-23T12:56:46.493Z)
Latitude
-0.00001°
Longitude
-103.42006°
Altitude
442.978 km
Speed
7.645 km/s
True Right ascension
08h 11m 53s
True Declination
0° 00' 00"
Sunlit
Object was in daylight at epoch
Visualization orbit readout
Latitude
Unknown
Longitude
Unknown
Altitude
Unknown
Speed
Unknown
Apparent Right ascension
Unknown
Apparent Declination
Unknown
Sunlit
N/A
Visualization observer readout
Local Sidereal Time
06:10:01
Azimuth
Unknown
Elevation
Unknown
Doppler factor
Unknown
Orbital elements
Apogee altitude
446.899 km
Perigee altitude
432.009 km
Semi-major axis
6,817.591 km
Eccentricity
0.00109
Inclination
44.9947°
RAAN
122.9709°
Arg. of periapsis
226.2929°
True anomaly
133.79598°
Mean anomaly
133.7056°
Eccentric anomaly
133.7508°
Mean motion
3.85564 °/min
Orbital period
93.37 mins
BSTAR
0.0014139
Loading maneuver chart data...
Computing Atmospheric mass density...
Loading historical data...
Loading historical data...
Loading historical data...
Loading historical data...
Loading historical data...
Loading historical data...
Loading historical data...

Documentation

Showing up to 5 results
|